This is the latest recevied weather packets stored in our database for station/object KJ4AJP. If no packets are shown the sender has not sent any weather packets the latest 10 day(s).
| Time | Temp. | Humidity | Pressure | Rain* | Wind** | Luminosity | Snow |
|---|---|---|---|---|---|---|---|
| 1777899648 | 17.78° C | 65% | 1012.4 hPa | 0 mm | - | 91 W/m² | - |
| 1777899345 | 17.78° C | 66% | 1012.6 hPa | 0 mm | - | 98 W/m² | - |
| 1777899043 | 17.22° C | 67% | 1012.5 hPa | 0 mm | - | 103 W/m² | - |
| 1777898739 | 17.22° C | 67% | 1012.6 hPa | 0 mm | - | 101 W/m² | - |
| 1777898437 | 17.22° C | 67% | 1012.3 hPa | 0 mm | - | 95 W/m² | - |
| 1777898135 | 17.22° C | 67% | 1012.5 hPa | 0 mm | - | 89 W/m² | - |
| 1777897831 | 16.67° C | 67% | 1012.5 hPa | 0 mm | - | 83 W/m² | - |
| 1777897527 | 16.67° C | 69% | 1012.4 hPa | 0 mm | - | 79 W/m² | - |
| 1777897223 | 16.67° C | 68% | 1012.4 hPa | 0 mm | - | 77 W/m² | - |
| 1777896920 | 16.67° C | 68% | 1012.4 hPa | 0 mm | - | 70 W/m² | - |
| 1777896617 | 16.67° C | 68% | 1012.5 hPa | 0 mm | - | 64 W/m² | - |
| 1777896314 | 16.11° C | 68% | 1012.4 hPa | 0 mm | - | 61 W/m² | - |
| 1777896012 | 16.11° C | 69% | 1012.5 hPa | 0 mm | - | 55 W/m² | - |
| 1777895710 | 16.11° C | 69% | 1012.4 hPa | 0 mm | - | 50 W/m² | - |
| 1777895406 | 15.56° C | 70% | 1012.4 hPa | 0 mm | - | 46 W/m² | - |
| 1777895104 | 15.56° C | 69% | 1012.3 hPa | 0 mm | - | 41 W/m² | - |
| 1777894801 | 15.56° C | 69% | 1012.2 hPa | 0 mm | - | 33 W/m² | - |
| 1777894498 | 15.56° C | 70% | 1012.2 hPa | 0 mm | - | 26 W/m² | - |
| 1777894195 | 15.56° C | 70% | 1012.4 hPa | 0 mm | - | 20 W/m² | - |
| 1777893892 | 15.56° C | 69% | 1012.1 hPa | 0 mm | - | 15 W/m² | - |
| 1777893588 | 15.56° C | 69% | 1012.1 hPa | 0 mm | - | 11 W/m² | - |
| 1777893285 | 15.56° C | 69% | 1012.1 hPa | 0 mm | - | 7 W/m² | - |
| 1777892981 | 15° C | 69% | 1012.1 hPa | 0 mm | - | 5 W/m² | - |
| 1777892678 | 15° C | 69% | 1012 hPa | 0 mm | - | 3 W/m² | - |
| 1777892374 | 15.56° C | 69% | 1011.9 hPa | 0 mm | - | 2 W/m² | - |
* Rain latest hour (hover to see other rain measurements)
** Current wind speed in m/s (hover to see current wind gust speed)